Theta_e
324 332 344 347 348 348 348 349 349 348 348 348 348 347 346 345 344 344 345 347 348 347 347 348 346 346 346 346 345 345 344 344 344 343 341 343 344 343 350 351 349 347 351
325 332 342 345 347 347 347 347 347 347 347 347 346 346 345 343 342 340 340 341 343 343 344 344 343 343 343 343 343 344 343 342 341 340 341 339 340 347 344 351 349 348 350
326 330 334 342 343 344 345 346 345 346 345 345 344 341 339 338 337 336 336 337 338 339 339 338 337 338 338 339 340 340 339 337 337 337 338 332 331 352 351 349 350 351 350
323 326 331 338 339 339 339 340 339 339 339 339 338 337 337 336 334 333 332 332 333 335 335 334 333 332 332 333 333 333 333 332 332 330 328 331 333 349 348 347 347 349 349
319 323 329 338 337 338 338 338 336 336 338 335 334 333 331 330 328 327 326 325 327 330 330 327 326 325 324 325 326 326 326 325 325 319 321 326 330 343 346 346 345 345 345
316 320 331 336 336 335 335 335 335 335 332 330 328 326 325 324 323 322 322 322 323 323 322 321 320 320 319 319 319 318 317 318 315 308 311 322 326 339 342 344 344 344 344
313 317 325 333 332 332 332 332 333 330 328 325 323 322 321 321 321 320 320 320 320 320 319 319 318 317 317 316 316 317 317 315 309 308 313 323 321 343 342 343 342 342 342
312 314 319 327 329 328 328 328 328 326 324 322 321 320 319 318 318 318 318 318 318 318 317 317 317 317 316 316 315 314 313 311 301 301 303 315 323 334 339 340 339 338 338
310 310 312 315 321 325 325 324 323 322 321 319 318 317 316 314 315 315 315 315 316 316 316 315 314 313 313 313 312 311 310 309 297 300 302 308 320 325 328 329 332 334 336
306 307 307 308 310 311 314 321 321 319 318 316 314 313 311 309 310 310 310 313 313 313 313 312 311 309 309 309 309 308 306 304 297 298 299 306 316 319 321 322 322 324 326
303 304 303 304 304 305 307 311 316 316 314 313 311 309 305 298 299 301 308 309 309 309 310 309 307 305 303 303 303 303 301 295 295 296 297 308 313 317 318 319 319 320 320
299 300 302 301 301 302 306 305 302 303 300 298 297 297 295 294 296 300 304 304 304 304 305 305 303 301 296 292 292 296 292 292 293 293 295 306 309 314 316 317 318 319 320
299 299 300 300 300 299 301 298 296 297 296 295 294 295 294 295 295 293 292 292 291 294 291 292 291 291 291 291 291 290 291 291 290 292 295 302 305 310 313 315 316 317 319
293 297 298 298 299 297 296 296 295 295 294 293 293 294 292 291 291 290 290 289 289 289 288 288 289 289 289 290 290 290 289 289 290 291 292 299 302 306 309 312 314 316 317
293 295 296 296 298 297 294 295 294 293 294 293 292 294 293 291 290 290 289 288 287 288 287 287 288 288 288 289 289 289 289 289 289 290 291 297 299 303 306 309 313 314 315
295 295 295 295 296 296 294 294 295 294 293 292 291 292 292 291 289 289 288 288 287 287 287 287 287 287 287 288 288 288 288 289 289 289 289 289 297 301 304 307 310 311 313
297 296 294 295 295 295 294 294 294 294 294 292 291 290 291 291 289 288 288 287 286 287 286 286 286 286 286 287 286 287 288 288 288 288 288 288 290 296 301 305 307 308 310
298 295 295 296 295 294 294 294 294 293 293 292 290 289 290 290 289 288 287 286 286 286 286 285 285 284 284 284 284 285 286 287 287 287 288 288 289 292 296 302 303 305 306
298 297 295 295 294 294 294 293 293 292 291 291 289 288 289 289 289 287 286 286 286 285 285 285 284 283 283 283 284 285 285 284 285 288 287 289 289 291 292 297 299 301 301
299 297 296 295 294 294 293 292 290 290 289 289 289 289 288 288 288 286 285 285 285 284 284 284 283 283 283 282 284 284 283 283 284 284 286 288 288 289 288 290 291 290 297
298 296 295 293 293 293 292 290 290 291 289 287 288 289 287 287 287 285 285 284 284 283 283 283 283 282 281 282 281 281 282 283 284 283 283 283 285 287 288 288 287 288 289
297 295 294 293 292 293 294 293 292 292 287 290 289 288 288 287 286 285 284 283 283 282 282 282 282 281 281 281 279 279 278 280 283 283 283 283 282 285 285 286 287 288 288
297 294 293 293 292 294 293 292 287 287 286 285 286 286 287 287 286 285 284 283 282 282 281 281 281 281 280 280 280 279 277 276 278 281 282 282 282 282 283 285 285 286 286
297 295 294 293 293 293 292 291 290 289 288 289 289 286 284 286 285 285 284 283 282 281 281 281 282 281 280 279 280 282 279 279 277 276 280 280 282 282 283 283 284 285 285
296 294 293 293 292 293 291 291 290 289 289 285 285 284 285 284 284 284 283 282 281 281 281 281 280 280 280 279 279 279 278 278 278 277 275 278 281 281 282 283 283 283 284
293 292 292 291 291 291 290 290 290 289 285 284 284 285 284 284 283 283 282 281 281 280 280 280 280 280 279 279 280 279 279 277 277 277 275 276 276 279 281 282 282 283 284
Wind_Speed
4 5 5 9 12 12 12 13 15 15 16 15 15 14 13 12 11 10 9 11 11 10 10 11 12 12 12 11 11 10 10 10 11 12 13 13 11 7 6 1 5 4 5
7 5 8 9 13 15 15 15 14 14 15 15 15 14 12 12 11 9 7 11 11 10 10 12 11 12 11 10 10 11 11 11 11 13 13 11 12 8 5 2 4 4 7
8 6 5 8 10 11 14 15 14 13 13 14 15 13 10 8 9 8 8 8 9 8 8 8 7 9 10 11 11 11 11 13 13 12 11 5 7 10 8 5 4 7 9
9 6 6 8 10 10 7 8 9 8 8 10 11 11 11 10 10 10 10 9 9 8 7 8 8 9 10 9 10 10 12 13 15 14 5 5 6 8 10 10 11 13 12
8 6 6 10 11 11 10 10 11 10 11 10 11 11 12 12 11 11 10 10 10 10 11 9 9 10 9 10 10 11 13 14 14 11 7 6 6 6 8 9 9 10 10
7 7 8 13 13 13 13 13 12 12 12 12 12 12 12 11 11 11 11 11 11 11 10 10 10 11 10 11 12 13 13 13 12 7 7 8 6 9 7 8 10 9 10
7 6 7 14 15 15 15 15 15 15 15 14 13 13 12 11 12 12 12 12 12 11 11 11 11 10 10 11 13 14 15 15 7 6 6 7 10 10 8 9 10 11 10
9 6 6 10 13 15 16 16 16 16 15 15 15 14 14 13 12 12 12 12 12 12 12 12 12 12 11 13 13 14 15 16 9 7 7 7 15 15 14 13 12 12 12
7 7 5 5 7 11 12 13 14 14 14 14 15 15 14 13 12 12 12 12 11 11 12 13 12 12 12 13 14 14 15 15 7 5 8 5 14 13 13 14 14 15 14
7 7 6 5 5 5 5 11 13 14 14 15 14 15 15 14 13 12 10 11 11 11 12 12 12 12 12 13 14 14 14 14 7 7 5 7 16 14 13 13 12 13 13
7 8 7 7 6 6 5 6 10 13 14 15 14 12 10 5 6 6 10 10 10 11 11 11 12 12 12 12 13 13 12 4 6 5 3 15 14 14 14 14 13 13 13
12 9 9 8 8 7 6 6 6 6 4 5 5 6 4 5 5 5 6 10 9 9 10 11 12 12 9 4 4 9 3 5 4 4 3 16 15 14 14 13 13 13 13
12 9 12 11 9 8 6 4 3 3 3 4 7 6 5 4 4 4 3 3 3 6 3 5 5 4 6 4 4 3 4 4 3 3 6 14 15 14 14 14 13 13 13
14 15 13 12 11 9 5 5 5 4 3 4 5 6 5 3 4 4 3 3 3 2 4 3 3 3 4 3 4 4 5 4 3 2 4 12 12 12 12 12 12 12 14
14 15 15 13 13 11 9 6 5 5 5 5 5 6 5 5 5 4 4 4 4 3 3 3 2 3 5 4 4 4 4 4 4 3 2 10 13 12 11 10 12 13 14
16 17 15 15 14 12 10 10 8 6 6 5 5 6 7 6 5 5 4 4 3 2 2 3 3 3 3 4 5 5 6 5 4 4 3 4 10 11 10 11 10 14 13
17 15 17 17 14 14 13 10 7 7 7 6 6 7 7 6 6 6 5 4 4 3 4 3 4 4 5 3 5 5 4 5 5 5 4 2 3 7 9 10 11 13 13
15 18 18 16 17 16 14 10 8 7 7 7 5 5 7 6 7 6 5 4 4 3 3 3 2 3 3 3 3 4 4 4 6 5 5 4 3 2 5 7 10 11 10
20 19 19 19 20 18 13 10 9 9 7 7 5 5 7 7 7 6 5 5 5 4 3 3 2 2 2 3 4 4 4 4 4 4 5 5 4 2 1 6 8 9 13
18 18 18 16 18 17 11 7 5 6 5 6 6 7 8 6 7 6 5 5 5 4 3 2 2 1 1 2 3 4 4 3 2 1 3 3 5 4 4 5 5 6 14
14 16 19 20 18 15 10 10 8 11 8 5 7 10 9 8 8 7 5 6 5 5 5 4 3 2 3 3 3 4 3 4 3 3 3 3 5 5 5 5 3 2 4
21 21 19 21 20 17 14 12 7 9 4 7 7 9 10 10 9 7 7 6 6 5 5 4 3 2 2 4 3 2 5 5 3 3 3 4 5 3 4 5 5 5 4
18 20 21 23 22 20 16 9 4 5 4 3 6 7 8 10 9 8 8 6 6 5 5 5 5 5 4 2 4 4 2 2 4 4 4 3 5 4 4 4 7 5 5
20 18 19 20 20 18 18 15 17 11 11 9 9 5 6 9 9 9 8 7 7 5 6 5 4 4 4 4 2 2 2 3 1 5 3 4 4 5 5 4 4 4 4
15 18 18 19 18 17 18 17 14 12 9 4 5 9 9 8 9 8 9 9 8 5 5 6 6 6 3 4 3 3 1 1 1 2 6 6 8 1 5 5 4 3 7
9 13 15 18 17 16 17 17 19 19 10 7 8 10 9 7 8 10 9 8 7 6 6 5 5 6 5 4 3 4 4 4 3 3 4 5 9 10 4 7 5 5 4
Wind_Direction
200 174 146 125 137 142 143 134 126 121 117 114 108 103 98 92 89 81 73 67 67 76 76 69 59 49 48 45 41 34 34 28 11 1 354 342 335 312 294 329 1 10 25
151 162 141 135 124 126 121 119 122 127 127 123 117 108 107 102 92 77 81 59 62 60 60 60 54 49 41 37 49 37 31 17 6 357 352 347 335 325 276 86 27 11 11
145 150 146 143 140 145 139 134 133 132 121 111 104 104 92 105 101 95 89 77 68 72 69 65 54 43 32 29 27 31 16 5 359 357 356 359 348 16 74 62 38 35 18
147 148 156 149 139 120 109 129 142 110 117 109 110 118 120 116 109 100 89 82 75 69 66 62 51 44 31 24 17 12 10 6 358 352 355 353 351 38 48 37 27 24 12
141 148 159 152 147 141 142 131 146 148 125 121 123 117 116 112 107 102 96 88 84 79 71 61 49 41 34 29 21 13 7 3 357 352 347 348 353 15 46 42 42 35 18
143 143 157 155 153 150 150 151 151 137 138 129 122 117 113 110 105 100 94 90 84 80 75 65 53 42 31 29 23 16 6 4 3 352 341 342 344 335 8 45 41 31 19
147 157 162 160 159 155 152 151 147 144 140 134 130 125 120 111 109 105 98 95 89 83 75 69 65 60 58 48 36 25 26 26 17 4 356 15 359 21 34 36 26 15 14
148 159 170 162 160 159 158 155 151 150 147 142 137 130 127 119 114 107 101 100 94 90 81 74 66 62 53 50 42 36 29 25 17 11 8 10 2 15 15 16 11 8 360
144 146 151 151 159 160 156 155 154 152 149 144 139 131 126 120 115 110 102 105 95 90 84 79 69 61 52 47 41 33 27 24 20 14 12 359 1 5 10 5 3 360 352
157 158 161 153 141 144 156 159 158 156 153 147 141 137 129 123 122 118 102 107 94 88 84 78 71 64 53 44 39 30 27 20 15 11 5 357 357 355 358 358 354 349 344
183 176 170 168 163 159 159 161 156 158 158 155 147 137 125 128 119 103 105 97 92 87 82 79 71 64 59 46 39 31 27 17 18 4 357 2 0 355 352 350 353 348 343
194 192 180 174 174 170 172 160 156 157 145 143 149 138 137 131 123 105 95 96 88 81 80 72 66 60 53 47 29 25 20 14 11 356 0 1 358 351 347 346 348 348 344
191 187 189 180 178 174 174 164 167 165 162 164 160 156 150 132 123 123 103 89 90 70 45 58 46 44 37 34 25 21 8 6 354 340 352 356 354 349 347 345 346 345 348
189 192 186 185 181 183 159 175 176 168 177 177 177 161 145 144 144 143 128 133 112 102 95 78 70 61 64 46 34 12 358 348 337 324 345 348 344 345 349 352 351 352 358
200 193 191 181 184 184 178 176 178 183 179 182 174 175 159 162 163 147 153 145 142 148 134 123 108 66 41 25 23 3 352 333 330 328 334 336 340 343 353 357 8 8 7
201 198 186 189 185 180 186 184 187 180 176 178 185 185 178 166 158 152 150 150 154 153 138 113 91 71 41 24 360 353 334 321 323 313 310 343 336 353 354 6 13 11 9
204 191 189 187 183 185 188 186 181 183 178 184 189 186 179 169 163 155 153 153 164 152 119 85 50 41 36 7 345 336 321 318 316 321 329 291 318 347 357 10 7 4 2
196 189 187 187 186 186 187 182 183 181 180 187 182 176 179 169 159 156 150 162 166 142 120 98 67 49 23 11 318 317 312 322 316 323 313 319 325 322 359 30 32 31 18
195 188 189 188 187 186 181 177 178 177 183 185 170 176 179 169 164 157 159 162 158 141 123 124 82 80 15 333 306 295 298 306 314 328 320 320 328 349 86 44 39 47 18
196 192 187 186 183 180 171 165 160 175 184 178 179 183 173 171 173 158 156 158 159 141 134 107 113 73 116 306 303 316 314 316 313 309 302 324 340 356 6 44 41 5 3
194 187 186 180 181 171 173 174 185 197 191 187 183 185 176 178 173 164 163 158 166 158 163 153 130 94 28 337 359 344 339 350 99 10 341 23 353 22 42 37 17 14 356
192 191 186 187 179 184 183 184 184 179 181 190 186 187 183 179 175 169 166 175 169 149 150 154 152 124 84 7 101 135 4 335 349 12 360 353 30 38 15 -0 2 358 351
196 189 188 187 184 185 179 161 96 92 75 158 195 189 188 181 178 172 174 167 167 159 166 172 165 168 148 59 68 125 20 295 323 326 345 337 2 345 345 343 329 311 324
202 192 190 185 182 184 174 174 181 190 191 201 194 171 171 183 183 180 172 168 169 168 171 170 172 163 131 145 84 105 112 138 22 320 298 301 345 328 292 286 287 286 275
188 188 186 181 181 180 180 182 186 195 197 141 146 158 178 185 186 184 176 173 173 173 173 172 169 166 158 138 143 149 110 103 148 203 304 313 313 219 283 266 254 253 285
178 178 179 181 183 176 179 184 192 197 172 157 169 179 185 186 188 186 180 173 171 169 176 176 168 163 167 152 150 151 159 158 161 182 255 270 290 311 294 286 275 255 256